CDT,Max TemperatureF,Mean TemperatureF,Min TemperatureF,Max Dew PointF,MeanDew PointF,Min DewpointF,Max Humidity, Mean Humidity, Min Humidity, Max Sea Level PressureIn, Mean Sea Level PressureIn, Min Sea Level PressureIn, Max VisibilityMiles, Mean VisibilityMiles, Min VisibilityMiles, Max Wind SpeedMPH, Mean Wind SpeedMPH, Max Gust SpeedMPH,PrecipitationIn, CloudCover, Events, WindDirDegrees
2013-5-1,41,36,30,30,22,19,75,63,49,30.54,30.29,29.94,10,10,10,15,8,24,0.00,8,,290
2013-5-2,35,32,28,25,21,19,80,64,52,30.61,30.56,30.51,10,10,10,10,6,16,0.00,8,,351
2013-5-3,44,34,24,28,21,16,80,57,34,30.50,30.35,30.25,10,10,10,13,6,20,0.00,3,,10
2013-5-4,37,34,32,36,33,28,93,89,75,30.26,30.25,30.23,10,8,2,9,5,,0.18,8,Rain-Snow,28
2013-5-5,50,42,35,39,36,34,93,86,66,30.24,30.20,30.13,10,7,1,7,2,,0.00,7,Snow,19
2013-5-6,69,50,30,48,40,28,93,71,40,30.14,30.09,30.03,10,8,0,10,2,17,0.00,2,Fog,214
2013-5-7,77,55,33,46,41,32,93,61,29,30.06,30.01,29.94,10,10,7,12,2,20,0.00,0,,207
2013-5-8,78,58,37,54,44,36,94,70,24,30.09,30.00,29.96,10,10,0,17,1,25,0.10,2,Fog-Rain-Thunderstorm,278
2013-5-9,62,52,41,39,31,19,81,53,20,30.21,30.15,30.08,10,10,10,15,7,22,0.00,3,,32
2013-5-10,60,43,26,41,28,23,93,57,29,30.22,30.06,29.86,10,10,10,14,4,24,0.00,2,Rain,214
2013-5-11,44,38,32,28,24,19,81,60,42,30.18,30.09,30.01,10,10,4,17,7,29,0.00,5,Snow,320
2013-5-12,53,38,24,21,17,9,80,47,18,30.21,30.16,30.09,10,10,10,13,3,20,0.00,0,,330
2013-5-13,64,45,26,37,27,18,80,50,32,30.09,29.88,29.63,10,10,10,21,6,28,0.00,1,Rain,161
2013-5-14,87,64,41,55,44,36,88,60,22,29.76,29.57,29.39,10,10,5,23,5,34,0.07,1,Rain,222
2013-5-15,77,62,46,45,39,32,87,50,21,29.87,29.80,29.69,10,10,10,12,5,21,0.00,1,Rain,289
2013-5-16,75,54,33,39,33,28,93,46,20,30.02,29.96,29.88,10,10,10,8,3,16,0.00,0,,53
2013-5-17,69,60,51,37,36,34,54,40,28,30.07,30.03,30.00,10,10,10,15,7,22,0.00,4,Rain,103
2013-5-18,59,54,50,55,49,34,94,81,44,30.02,29.92,29.86,10,8,2,12,6,16,0.10,8,Rain-Thunderstorm,136
2013-5-19,62,58,53,57,55,52,100,92,82,29.87,29.79,29.71,10,5,1,17,6,25,0.00,8,Rain-Thunderstorm,66
2013-5-20,55,52,48,52,51,46,94,92,87,29.72,29.65,29.60,10,8,2,17,12,25,0.00,8,Rain,74
2013-5-21,48,46,44,46,43,41,93,92,87,29.88,29.78,29.70,10,6,2,14,10,21,0.00,8,Rain,41
2013-5-22,71,58,44,45,39,21,93,60,16,30.13,29.94,29.86,10,9,4,18,9,31,0.00,3,Rain,31
2013-5-23,62,50,35,36,27,18,75,44,19,30.34,30.29,30.14,10,10,10,12,6,17,0.00,0,,25
2013-5-24,69,50,30,37,31,27,93,49,21,30.36,30.29,30.22,10,10,10,15,4,20,0.00,0,Rain,189
2013-5-25,66,57,48,46,44,37,87,65,43,30.29,30.26,30.23,10,10,10,16,5,23,0.00,5,Rain,123
2013-5-26,71,58,44,37,33,30,62,39,22,30.28,30.20,30.12,10,10,10,16,8,24,0.00,1,,131
2013-5-27,68,58,48,46,39,28,54,48,41,30.11,29.99,29.88,10,10,10,14,6,25,0.00,5,,128
2013-5-28,69,58,46,54,46,37,72,62,48,29.87,29.76,29.70,10,10,10,12,5,16,0.00,6,,144
2013-5-29,78,66,55,59,55,48,94,72,44,29.75,29.73,29.70,10,10,4,16,7,21,0.00,4,Rain,183
2013-5-30,75,68,60,64,60,57,94,82,64,29.71,29.61,29.53,10,9,1,18,5,24,0.00,6,Rain-Thunderstorm,118
2013-5-31,71,64,57,63,56,52,94,76,50,29.59,29.52,29.48,10,9,4,20,5,24,0.00,6,Rain,160